TimeCST,TemperatureF,Dew PointF,Humidity,Sea Level PressureIn,VisibilityMPH,Wind Direction,Wind SpeedMPH,Gust SpeedMPH,PrecipitationIn,Events,Conditions,WindDirDegrees,DateUTC
12:07 AM,-2.2,-7.6,78,30.34,10.0,WSW,9.2,-,N/A,,Clear,250,2013-12-06 06:07:00
12:28 AM,-4.0,-7.6,85,30.33,10.0,WSW,6.9,-,N/A,,Clear,250,2013-12-06 06:28:00
12:48 AM,-4.0,-7.6,85,30.33,10.0,West,6.9,-,N/A,,Clear,270,2013-12-06 06:48:00
1:07 AM,-4.0,-9.4,78,30.33,10.0,West,8.1,-,N/A,,Clear,270,2013-12-06 07:07:00
1:28 AM,-5.8,-9.4,84,30.33,10.0,West,9.2,-,N/A,,Clear,270,2013-12-06 07:28:00
1:48 AM,-5.8,-9.4,84,30.33,10.0,West,10.4,-,N/A,,Clear,270,2013-12-06 07:48:00
2:07 AM,-5.8,-9.4,84,30.33,10.0,West,9.2,-,N/A,,Clear,270,2013-12-06 08:07:00
2:28 AM,-5.8,-9.4,84,30.34,10.0,West,8.1,-,N/A,,Clear,280,2013-12-06 08:28:00
2:47 AM,-5.8,-9.4,84,30.34,10.0,West,8.1,-,N/A,,Clear,270,2013-12-06 08:47:00
3:07 AM,-5.8,-9.4,84,30.34,10.0,West,6.9,-,N/A,,Clear,270,2013-12-06 09:07:00
3:28 AM,-5.8,-9.4,84,30.34,10.0,West,8.1,-,N/A,,Clear,270,2013-12-06 09:28:00
3:47 AM,-7.6,-11.2,84,30.35,10.0,WSW,6.9,-,N/A,,Clear,250,2013-12-06 09:47:00
4:08 AM,-7.6,-11.2,84,30.35,10.0,WSW,5.8,-,N/A,,Clear,250,2013-12-06 10:08:00
4:27 AM,-7.6,-11.2,84,30.36,10.0,West,8.1,-,N/A,,Clear,260,2013-12-06 10:27:00
4:48 AM,-7.6,-11.2,84,30.36,10.0,WSW,6.9,-,N/A,,Clear,250,2013-12-06 10:48:00
5:08 AM,-7.6,-11.2,84,30.37,10.0,West,9.2,-,N/A,,Clear,260,2013-12-06 11:08:00
5:27 AM,-7.6,-11.2,84,30.37,10.0,West,9.2,-,N/A,,Clear,260,2013-12-06 11:27:00
5:48 AM,-7.6,-11.2,84,30.38,10.0,WSW,10.4,-,N/A,,Clear,250,2013-12-06 11:48:00
6:07 AM,-7.6,-11.2,84,30.39,10.0,West,8.1,-,N/A,,Clear,260,2013-12-06 12:07:00
6:28 AM,-7.6,-11.2,84,30.41,10.0,West,8.1,-,N/A,,Clear,270,2013-12-06 12:28:00
6:47 AM,-7.6,-11.2,84,30.41,10.0,West,9.2,-,N/A,,Clear,270,2013-12-06 12:47:00
7:08 AM,-7.6,-13.0,77,30.42,10.0,West,10.4,-,N/A,,Clear,270,2013-12-06 13:08:00
7:28 AM,-7.6,-13.0,77,30.42,10.0,West,10.4,-,N/A,,Clear,270,2013-12-06 13:28:00
7:47 AM,-7.6,-13.0,77,30.44,10.0,West,8.1,-,N/A,,Clear,270,2013-12-06 13:47:00
8:08 AM,-7.6,-13.0,77,30.44,10.0,West,5.8,-,N/A,,Clear,270,2013-12-06 14:08:00
8:28 AM,-7.6,-11.2,84,30.45,10.0,West,6.9,-,N/A,,Clear,270,2013-12-06 14:28:00
8:47 AM,-7.6,-11.2,84,30.46,10.0,West,8.1,-,N/A,,Clear,270,2013-12-06 14:47:00
9:08 AM,-5.8,-11.2,77,30.46,10.0,West,10.4,-,N/A,,Clear,280,2013-12-06 15:08:00
9:28 AM,-5.8,-11.2,77,30.47,10.0,West,10.4,-,N/A,,Clear,280,2013-12-06 15:28:00
9:47 AM,-4.0,-9.4,78,30.48,10.0,West,6.9,-,N/A,,Clear,270,2013-12-06 15:47:00
10:08 AM,-2.2,-9.4,71,30.48,10.0,West,8.1,-,N/A,,Clear,270,2013-12-06 16:08:00
10:28 AM,-2.2,-9.4,71,30.49,10.0,West,6.9,-,N/A,,Clear,270,2013-12-06 16:28:00
10:47 AM,-2.2,-7.6,78,30.49,10.0,West,8.1,-,N/A,,Clear,280,2013-12-06 16:47:00
11:08 AM,-0.4,-7.6,72,30.49,10.0,West,8.1,-,N/A,,Clear,280,2013-12-06 17:08:00
11:27 AM,-0.4,-7.6,72,30.49,10.0,West,5.8,-,N/A,,Clear,260,2013-12-06 17:27:00
11:48 AM,-0.4,-7.6,72,30.48,10.0,West,9.2,-,N/A,,Clear,280,2013-12-06 17:48:00
12:07 PM,-0.4,-7.6,72,30.48,10.0,West,9.2,-,N/A,,Clear,280,2013-12-06 18:07:00
12:28 PM,1.4,-5.8,72,30.47,10.0,West,10.4,-,N/A,,Clear,280,2013-12-06 18:28:00
12:48 PM,1.4,-5.8,72,30.47,10.0,West,8.1,-,N/A,,Clear,260,2013-12-06 18:48:00
1:07 PM,1.4,-5.8,72,30.46,10.0,West,12.7,-,N/A,,Clear,280,2013-12-06 19:07:00
1:28 PM,1.4,-5.8,72,30.46,10.0,West,15.0,-,N/A,,Clear,280,2013-12-06 19:28:00
1:48 PM,1.4,-7.6,66,30.47,10.0,West,12.7,-,N/A,,Clear,270,2013-12-06 19:48:00
2:07 PM,1.4,-7.6,66,30.47,10.0,WNW,11.5,-,N/A,,Clear,290,2013-12-06 20:07:00
2:28 PM,-0.4,-7.6,72,30.48,10.0,West,12.7,-,N/A,,Clear,270,2013-12-06 20:28:00
2:48 PM,-0.4,-7.6,72,30.48,10.0,West,10.4,-,N/A,,Clear,280,2013-12-06 20:48:00
3:07 PM,-0.4,-7.6,72,30.49,10.0,West,11.5,-,N/A,,Clear,270,2013-12-06 21:07:00
3:28 PM,-0.4,-7.6,72,30.49,10.0,West,13.8,-,N/A,,Clear,270,2013-12-06 21:28:00
3:47 PM,-2.2,-7.6,78,30.50,10.0,West,13.8,-,N/A,,Clear,280,2013-12-06 21:47:00
4:07 PM,-2.2,-7.6,78,30.50,10.0,West,11.5,-,N/A,,Clear,280,2013-12-06 22:07:00
4:28 PM,-2.2,-9.4,71,30.50,10.0,West,10.4,-,N/A,,Clear,270,2013-12-06 22:28:00
4:47 PM,-4.0,-9.4,78,30.51,10.0,West,8.1,-,N/A,,Clear,270,2013-12-06 22:47:00
5:07 PM,-4.0,-9.4,78,30.51,10.0,West,10.4,-,N/A,,Clear,270,2013-12-06 23:07:00
5:28 PM,-4.0,-9.4,78,30.52,10.0,West,8.1,-,N/A,,Clear,260,2013-12-06 23:28:00
5:47 PM,-4.0,-9.4,78,30.52,10.0,West,8.1,-,N/A,,Clear,270,2013-12-06 23:47:00
6:07 PM,-5.8,-9.4,84,30.53,10.0,West,9.2,-,N/A,,Clear,270,2013-12-07 00:07:00
6:28 PM,-5.8,-9.4,84,30.53,10.0,West,11.5,-,N/A,,Clear,270,2013-12-07 00:28:00
6:47 PM,-5.8,-9.4,84,30.53,10.0,West,9.2,-,N/A,,Clear,270,2013-12-07 00:47:00
7:07 PM,-5.8,-9.4,84,30.54,10.0,West,11.5,-,N/A,,Clear,270,2013-12-07 01:07:00
7:28 PM,-5.8,-11.2,77,30.55,10.0,West,12.7,-,N/A,,Clear,280,2013-12-07 01:28:00
7:47 PM,-5.8,-9.4,84,30.55,10.0,West,13.8,-,N/A,,Clear,270,2013-12-07 01:47:00
8:07 PM,-5.8,-11.2,77,30.56,10.0,West,12.7,18.4,N/A,,Clear,270,2013-12-07 02:07:00
8:28 PM,-5.8,-11.2,77,30.57,10.0,West,12.7,18.4,N/A,,Clear,270,2013-12-07 02:28:00
8:47 PM,-5.8,-11.2,77,30.57,10.0,West,11.5,-,N/A,,Clear,270,2013-12-07 02:47:00
9:07 PM,-7.6,-11.2,84,30.58,10.0,West,12.7,-,N/A,,Clear,280,2013-12-07 03:07:00
9:28 PM,-7.6,-11.2,84,30.58,10.0,West,11.5,-,N/A,,Clear,280,2013-12-07 03:28:00
9:47 PM,-7.6,-13.0,77,30.59,10.0,West,12.7,-,N/A,,Clear,280,2013-12-07 03:47:00
10:07 PM,-7.6,-13.0,77,30.59,10.0,WNW,13.8,-,N/A,,Clear,290,2013-12-07 04:07:00
10:28 PM,-7.6,-13.0,77,30.60,10.0,WNW,10.4,-,N/A,,Clear,290,2013-12-07 04:28:00
10:47 PM,-9.4,-14.8,77,30.61,10.0,West,10.4,-,N/A,,Clear,280,2013-12-07 04:47:00
11:07 PM,-9.4,-14.8,77,30.61,10.0,West,9.2,-,N/A,,Clear,280,2013-12-07 05:07:00
11:28 PM,-9.4,-14.8,77,30.62,10.0,West,8.1,-,N/A,,Clear,280,2013-12-07 05:28:00
11:47 PM,-9.4,-14.8,77,30.62,10.0,West,5.8,-,N/A,,Clear,270,2013-12-07 05:47:00